| time (UTC) | temp F | wind direction | speed knots | gust knots | rain 1hr in | rain 24hr in | rain mn in | humidity % | barometer mb |
| 20260906205704 | 94 | 162 | 5.2 | 13.0 | 0.00 | 0.00 | 0.00 | 33 | 1003.3 |
| 20260906205205 | 94 | 162 | 3.5 | 7.8 | 0.00 | 0.00 | 0.00 | 32 | 1003.4 |
| 20260906204704 | 94 | 153 | 2.6 | 7.8 | 0.00 | 0.00 | 0.00 | 32 | 1003.4 |
| 20260906204204 | 94 | 113 | 4.3 | 10.4 | 0.00 | 0.00 | 0.00 | 31 | 1003.4 |
| 20260906203705 | 94 | 169 | 3.5 | 10.4 | 0.00 | 0.00 | 0.00 | 33 | 1003.5 |
| 20260906203204 | 94 | 128 | 2.6 | 10.4 | 0.00 | 0.00 | 0.00 | 33 | 1003.5 |
| 20260906202704 | 94 | 150 | 6.1 | 12.2 | 0.00 | 0.00 | 0.00 | 32 | 1003.6 |
| 20260906201704 | 93 | 139 | 0.9 | 4.3 | 0.00 | 0.00 | 0.00 | 32 | 1003.7 |
| 20260906201205 | 93 | 82 | 2.6 | 7.0 | 0.00 | 0.00 | 0.00 | 31 | 1003.7 |
| 20260906200705 | 93 | 177 | 4.3 | 10.4 | 0.00 | 0.00 | 0.00 | 32 | 1003.9 |
| 20260906200205 | 93 | 176 | 5.2 | 8.7 | 0.00 | 0.00 | 0.00 | 31 | 1003.8 |
| 20260906195705 | 93 | 193 | 3.5 | 10.4 | 0.00 | 0.00 | 0.00 | 32 | 1003.8 |
| 20260906194705 | 92 | 213 | 5.2 | 8.7 | 0.00 | 0.00 | 0.00 | 32 | 1003.8 |
| 20260906193704 | 92 | 182 | 2.6 | 7.0 | 0.00 | 0.00 | 0.00 | 34 | 1003.8 |
| 20260906193205 | 92 | 215 | 4.3 | 13.9 | 0.00 | 0.00 | 0.00 | 34 | 1003.9 |
| 20260906192704 | 93 | 238 | 2.6 | 10.4 | 0.00 | 0.00 | 0.00 | 33 | 1003.9 |
| 20260906191704 | 94 | 136 | 1.7 | 2.6 | 0.00 | 0.00 | 0.00 | 33 | 1004.1 |
| 20260906191205 | 93 | 151 | 1.7 | 4.3 | 0.00 | 0.00 | 0.00 | 33 | 1004.1 |
| 20260906190705 | 93 | 196 | 2.6 | 4.3 | 0.00 | 0.00 | 0.00 | 33 | 1004.2 |
| 20260906190204 | 93 | 197 | 2.6 | 6.1 | 0.00 | 0.00 | 0.00 | 33 | 1004.2 |
| 20260906185705 | 92 | 105 | 0.9 | 2.6 | 0.00 | 0.00 | 0.00 | 33 | 1004.3 |
| 20260906185204 | 92 | 113 | 1.7 | 5.2 | 0.00 | 0.00 | 0.00 | 33 | 1004.4 |
| 20260906184704 | 92 | 116 | 1.7 | 5.2 | 0.00 | 0.00 | 0.00 | 34 | 1004.4 |
| 20260906183704 | 91 | 165 | 1.7 | 4.3 | 0.00 | 0.00 | 0.00 | 32 | 1004.6 |
| 20260906183204 | 92 | 204 | 4.3 | 7.0 | 0.00 | 0.00 | 0.00 | 32 | 1004.7 |
| 20260906182705 | 91 | 200 | 1.7 | 4.3 | 0.00 | 0.00 | 0.00 | 33 | 1004.8 |
| 20260906182204 | 90 | 29 | 0.9 | 7.0 | 0.00 | 0.00 | 0.00 | 34 | 1004.9 |
| 20260906181205 | 90 | 38 | 2.6 | 5.2 | 0.00 | 0.00 | 0.00 | 35 | 1005.2 |
| 20260906180705 | 90 | 44 | 3.5 | 6.1 | 0.00 | 0.00 | 0.00 | 36 | 1005.3 |
| 20260906180205 | 90 | 40 | 3.5 | 6.1 | 0.00 | 0.00 | 0.00 | 35 | 1005.4 |
| 20260906175205 | 90 | 35 | 2.6 | 5.2 | 0.00 | 0.00 | 0.00 | 34 | 1005.5 |
| 20260906174204 | 90 | 219 | 1.7 | 2.6 | 0.00 | 0.00 | 0.00 | 35 | 1005.6 |
| 20260906173704 | 88 | 217 | 0.9 | 1.7 | 0.00 | 0.00 | 0.00 | 36 | 1005.7 |
| 20260906173204 | 88 | 217 | 1.7 | 2.6 | 0.00 | 0.00 | 0.00 | 37 | 1005.7 |
| 20260906172704 | 87 | 217 | 2.6 | 5.2 | 0.00 | 0.00 | 0.00 | 37 | 1005.8 |
| 20260906171704 | 87 | 227 | 2.6 | 2.6 | 0.00 | 0.00 | 0.00 | 37 | 1006.1 |
| 20260906171204 | 87 | 227 | 1.7 | 2.6 | 0.00 | 0.00 | 0.00 | 38 | 1006.1 |
| 20260906170705 | 88 | 223 | 2.6 | 4.3 | 0.00 | 0.00 | 0.00 | 37 | 1006.2 |
| 20260906170204 | 88 | 225 | 1.7 | 2.6 | 0.00 | 0.00 | 0.00 | 37 | 1006.2 |
| 20260906165704 | 88 | 225 | 0.9 | 2.6 | 0.00 | 0.00 | 0.00 | 38 | 1006.4 |
| 20260906165204 | 87 | 225 | 0.9 | 2.6 | 0.00 | 0.00 | 0.00 | 39 | 1006.4 |
| 20260906164705 | 86 | 225 | 0.0 | 1.7 | 0.00 | 0.00 | 0.00 | 40 | 1006.4 |
| 20260906164204 | 85 | 225 | 0.9 | 2.6 | 0.00 | 0.00 | 0.00 | 40 | 1006.6 |
| 20260906163705 | 85 | 225 | 1.7 | 2.6 | 0.00 | 0.00 | 0.00 | 40 | 1006.6 |
| 20260906163204 | 84 | 225 | 0.0 | 2.6 | 0.00 | 0.00 | 0.00 | 42 | 1006.6 |
| 20260906162204 | 83 | 222 | 0.9 | 2.6 | 0.00 | 0.00 | 0.00 | 43 | 1006.7 |
| 20260906161704 | 82 | 221 | 0.9 | 1.7 | 0.00 | 0.00 | 0.00 | 43 | 1006.8 |
| 20260906161204 | 82 | 221 | 1.7 | 2.6 | 0.00 | 0.00 | 0.00 | 44 | 1006.8 |
| 20260906160705 | 82 | 229 | 4.3 | 6.1 | 0.00 | 0.00 | 0.00 | 43 | 1006.7 |
| 20260906160204 | 82 | 221 | 2.6 | 4.3 | 0.00 | 0.00 | 0.00 | 44 | 1006.7 |
| 20260906155205 | 81 | 270 | 1.7 | 2.6 | 0.00 | 0.00 | 0.00 | 45 | 1006.8 |
| 20260906154704 | 80 | 250 | 1.7 | 5.2 | 0.00 | 0.00 | 0.00 | 46 | 1006.8 |
| 20260906154205 | 80 | 277 | 0.9 | 4.3 | 0.00 | 0.00 | 0.00 | 47 | 1006.8 |
| 20260906153704 | 79 | 221 | 0.9 | 5.2 | 0.00 | 0.00 | 0.00 | 48 | 1006.8 |
| 20260906153204 | 79 | 209 | 2.6 | 7.0 | 0.00 | 0.00 | 0.00 | 48 | 1006.9 |
| 20260906152704 | 78 | 223 | 2.6 | 4.3 | 0.00 | 0.00 | 0.00 | 49 | 1006.8 |
| 20260906152204 | 78 | 232 | 0.9 | 4.3 | 0.00 | 0.00 | 0.00 | 49 | 1006.8 |
| 20260906151705 | 78 | 225 | 2.6 | 5.2 | 0.00 | 0.00 | 0.00 | 49 | 1006.7 |
| 20260906151204 | 77 | 255 | 1.7 | 2.6 | 0.00 | 0.00 | 0.00 | 49 | 1006.8 |
| 20260906150204 | 76 | 250 | 1.7 | 2.6 | 0.00 | 0.00 | 0.00 | 51 | 1006.9 |
| 20260906145704 | 76 | 211 | 1.7 | 2.6 | 0.00 | 0.00 | 0.00 | 51 | 1007.0 |
| 20260906144704 | 76 | 269 | 1.7 | 2.6 | 0.00 | 0.00 | 0.00 | 52 | 1007.1 |
| 20260906144204 | 75 | 284 | 2.6 | 5.2 | 0.00 | 0.00 | 0.00 | 52 | 1007.1 |
| 20260906143704 | 75 | 224 | 1.7 | 2.6 | 0.00 | 0.00 | 0.00 | 53 | 1007.1 |
| 20260906143205 | 75 | 223 | 2.6 | 6.1 | 0.00 | 0.00 | 0.00 | 53 | 1007.2 |
| 20260906142704 | 75 | 210 | 4.3 | 5.2 | 0.00 | 0.00 | 0.00 | 53 | 1007.2 |
| 20260906142203 | 75 | 176 | 1.7 | 5.2 | 0.00 | 0.00 | 0.00 | 53 | 1007.2 |
| 20260906141704 | 74 | 217 | 0.9 | 2.6 | 0.00 | 0.00 | 0.00 | 53 | 1007.2 |
| 20260906141204 | 74 | 217 | 1.7 | 4.3 | 0.00 | 0.00 | 0.00 | 53 | 1007.3 |
| 20260906140704 | 75 | 205 | 0.9 | 1.7 | 0.00 | 0.00 | 0.00 | 53 | 1007.4 |
| 20260906140204 | 74 | 205 | 0.9 | 1.7 | 0.00 | 0.00 | 0.00 | 53 | 1007.3 |
| 20260906135704 | 73 | 205 | 0.0 | 0.9 | 0.00 | 0.00 | 0.00 | 55 | 1007.3 |
| 20260906134704 | 72 | 205 | 0.9 | 2.6 | 0.00 | 0.00 | 0.00 | 56 | 1007.3 |
| 20260906134204 | 72 | 205 | 1.7 | 2.6 | 0.00 | 0.00 | 0.00 | 57 | 1007.4 |
| 20260906133704 | 72 | 204 | 0.9 | 2.6 | 0.00 | 0.00 | 0.00 | 58 | 1007.4 |
| 20260906133203 | 71 | 212 | 1.7 | 5.2 | 0.00 | 0.00 | 0.00 | 58 | 1007.5 |
| 20260906132705 | 71 | 219 | 2.6 | 6.1 | 0.00 | 0.00 | 0.00 | 58 | 1007.6 |
| 20260906132204 | 71 | 227 | 4.3 | 5.2 | 0.00 | 0.00 | 0.00 | 58 | 1007.6 |
| 20260906131704 | 70 | 232 | 1.7 | 2.6 | 0.00 | 0.00 | 0.00 | 60 | 1007.7 |
| 20260906131204 | 70 | 232 | 0.0 | 0.9 | 0.00 | 0.00 | 0.00 | 61 | 1007.7 |
| 20260906130704 | 69 | 232 | 0.0 | 0.0 | 0.00 | 0.00 | 0.00 | 62 | 1007.7 |
| 20260906130204 | 69 | 232 | 0.9 | 1.7 | 0.00 | 0.00 | 0.00 | 62 | 1007.6 |
| 20260906125703 | 68 | 232 | 1.7 | 2.6 | 0.00 | 0.00 | 0.00 | 62 | 1007.6 |
| 20260906124704 | 68 | 232 | 0.9 | 1.7 | 0.00 | 0.00 | 0.00 | 63 | 1007.6 |
| 20260906124204 | 67 | 232 | 0.0 | 2.6 | 0.00 | 0.00 | 0.00 | 64 | 1007.5 |
| 20260906122204 | 68 | 233 | 0.9 | 1.7 | 0.00 | 0.00 | 0.00 | 61 | 1007.4 |
| 20260906121704 | 69 | 233 | 0.0 | 0.0 | 0.00 | 0.00 | 0.00 | 60 | 1007.3 |
| 20260906121204 | 69 | 233 | 0.0 | 0.9 | 0.00 | 0.00 | 0.00 | 59 | 1007.4 |
| 20260906120203 | 70 | 233 | 0.9 | 2.6 | 0.00 | 0.00 | 0.00 | 58 | 1007.5 |
| 20260906115204 | 70 | 233 | 1.7 | 2.6 | 0.00 | 0.00 | 0.00 | 58 | 1007.4 |
| 20260906114704 | 70 | 233 | 0.9 | 2.6 | 0.00 | 0.00 | 0.00 | 58 | 1007.4 |
| 20260906114204 | 70 | 233 | 0.9 | 2.6 | 0.00 | 0.00 | 0.00 | 57 | 1007.3 |
| 20260906113204 | 71 | 233 | 0.0 | 1.7 | 0.00 | 0.00 | 0.00 | 55 | 1007.3 |
| 20260906112704 | 72 | 233 | 1.7 | 2.6 | 0.00 | 0.00 | 0.00 | 54 | 1007.3 |
| 20260906112204 | 72 | 233 | 0.0 | 1.7 | 0.00 | 0.00 | 0.00 | 53 | 1007.3 |
| 20260906111704 | 72 | 233 | 0.9 | 2.6 | 0.00 | 0.00 | 0.00 | 53 | 1007.3 |
| 20260906111204 | 72 | 232 | 0.9 | 2.6 | 0.00 | 0.00 | 0.00 | 53 | 1007.2 |
| 20260906110704 | 72 | 242 | 1.7 | 2.6 | 0.00 | 0.00 | 0.00 | 53 | 1007.3 |
| 20260906110204 | 72 | 243 | 0.9 | 1.7 | 0.00 | 0.00 | 0.00 | 53 | 1007.2 |
| 20260906105704 | 73 | 243 | 0.9 | 2.6 | 0.00 | 0.00 | 0.00 | 52 | 1007.1 |
| 20260906105204 | 73 | 243 | 0.9 | 5.2 | 0.00 | 0.00 | 0.00 | 52 | 1007.1 |
| 20260906104704 | 73 | 234 | 0.9 | 2.6 | 0.00 | 0.00 | 0.00 | 51 | 1007.0 |
| 20260906104204 | 73 | 168 | 0.9 | 4.3 | 0.00 | 0.00 | 0.00 | 51 | 1007.0 |
| 20260906103704 | 73 | 223 | 2.6 | 5.2 | 0.00 | 0.00 | 0.00 | 51 | 1006.9 |
| 20260906103204 | 73 | 186 | 0.9 | 2.6 | 0.00 | 0.00 | 0.00 | 52 | 1006.8 |
| 20260906102704 | 73 | 186 | 1.7 | 6.1 | 0.00 | 0.00 | 0.00 | 51 | 1006.8 |
| 20260906102203 | 73 | 221 | 2.6 | 5.2 | 0.00 | 0.00 | 0.00 | 51 | 1006.9 |
| 20260906101705 | 74 | 257 | 3.5 | 7.0 | 0.00 | 0.00 | 0.00 | 51 | 1006.9 |
| 20260906101206 | 74 | 264 | 3.5 | 6.1 | 0.00 | 0.00 | 0.00 | 50 | 1006.9 |
| 20260906100706 | 74 | 266 | 2.6 | 5.2 | 0.00 | 0.00 | 0.00 | 49 | 1006.8 |
| 20260906095706 | 74 | 186 | 1.7 | 2.6 | 0.00 | 0.00 | 0.00 | 49 | 1006.5 |
| 20260906095205 | 75 | 182 | 0.0 | 5.2 | 0.00 | 0.00 | 0.00 | 49 | 1006.4 |
| 20260906094705 | 75 | 179 | 1.7 | 7.8 | 0.00 | 0.00 | 0.00 | 49 | 1006.4 |
| 20260906093705 | 74 | 267 | 1.7 | 6.1 | 0.00 | 0.00 | 0.00 | 50 | 1006.4 |
| 20260906093206 | 74 | 279 | 2.6 | 5.2 | 0.00 | 0.00 | 0.00 | 50 | 1006.3 |
| 20260906092706 | 74 | 303 | 1.7 | 2.6 | 0.00 | 0.00 | 0.00 | 51 | 1006.4 |
| 20260906092206 | 75 | 304 | 0.9 | 6.1 | 0.00 | 0.00 | 0.00 | 50 | 1006.4 |
| 20260906091706 | 75 | 342 | 0.9 | 5.2 | 0.00 | 0.00 | 0.00 | 49 | 1006.4 |
| 20260906091205 | 76 | 314 | 0.9 | 7.0 | 0.00 | 0.00 | 0.00 | 46 | 1006.2 |
| 20260906090205 | 76 | 176 | 1.7 | 6.1 | 0.00 | 0.00 | 0.00 | 46 | 1006.0 |
| 20260906085705 | 76 | 215 | 6.1 | 15.6 | 0.00 | 0.00 | 0.00 | 47 | 1005.9 |
| 20260906085206 | 76 | 192 | 4.3 | 12.2 | 0.00 | 0.00 | 0.00 | 48 | 1005.8 |
| 20260906084706 | 76 | 185 | 5.2 | 15.6 | 0.00 | 0.00 | 0.00 | 48 | 1005.6 |
| 20260906084206 | 76 | 189 | 7.0 | 15.6 | 0.00 | 0.00 | 0.00 | 49 | 1005.3 |
| 20260906083706 | 76 | 177 | 7.8 | 14.8 | 0.00 | 0.00 | 0.00 | 49 | 1005.2 |
| 20260906083205 | 75 | 176 | 8.7 | 14.8 | 0.00 | 0.00 | 0.00 | 50 | 1005.1 |
| 20260906081706 | 75 | 193 | 7.0 | 12.2 | 0.00 | 0.00 | 0.00 | 52 | 1005.2 |
| 20260906081206 | 75 | 173 | 6.1 | 17.4 | 0.00 | 0.00 | 0.00 | 52 | 1005.3 |
| 20260906080705 | 76 | 167 | 5.2 | 13.0 | 0.00 | 0.00 | 0.00 | 52 | 1005.4 |
| 20260906080205 | 76 | 186 | 6.1 | 12.2 | 0.00 | 0.00 | 0.00 | 51 | 1005.4 |
| 20260906075705 | 76 | 181 | 7.0 | 13.9 | 0.00 | 0.00 | 0.00 | 50 | 1005.5 |
| 20260906075205 | 76 | 188 | 8.7 | 15.6 | 0.00 | 0.00 | 0.00 | 50 | 1005.5 |
| 20260906074705 | 76 | 198 | 10.4 | 17.4 | 0.00 | 0.00 | 0.00 | 50 | 1005.5 |
| 20260906074206 | 77 | 188 | 8.7 | 15.6 | 0.00 | 0.00 | 0.00 | 50 | 1005.6 |
| 20260906073705 | 77 | 195 | 9.6 | 17.4 | 0.00 | 0.00 | 0.00 | 49 | 1005.6 |
| 20260906073205 | 78 | 177 | 6.1 | 13.9 | 0.00 | 0.00 | 0.00 | 47 | 1005.7 |
| 20260906072705 | 78 | 185 | 5.2 | 11.3 | 0.00 | 0.00 | 0.00 | 45 | 1005.8 |
| 20260906072206 | 79 | 187 | 4.3 | 15.6 | 0.00 | 0.00 | 0.00 | 44 | 1005.9 |
| 20260906071705 | 79 | 175 | 3.5 | 8.7 | 0.00 | 0.00 | 0.00 | 44 | 1005.9 |
| 20260906070706 | 79 | 179 | 6.1 | 13.0 | 0.00 | 0.00 | 0.00 | 43 | 1005.7 |
| 20260906070205 | 79 | 170 | 5.2 | 11.3 | 0.00 | 0.00 | 0.00 | 45 | 1005.5 |
| 20260906064705 | 78 | 202 | 6.1 | 10.4 | 0.00 | 0.00 | 0.00 | 46 | 1005.3 |
| 20260906064205 | 79 | 192 | 5.2 | 10.4 | 0.00 | 0.00 | 0.00 | 46 | 1005.3 |
| 20260906063706 | 79 | 196 | 2.6 | 10.4 | 0.00 | 0.00 | 0.00 | 45 | 1005.5 |
| 20260906062705 | 79 | 204 | 4.3 | 8.7 | 0.00 | 0.00 | 0.00 | 45 | 1005.5 |
| 20260906062206 | 79 | 188 | 7.8 | 13.9 | 0.00 | 0.00 | 0.00 | 45 | 1005.5 |
| 20260906061705 | 80 | 208 | 7.0 | 12.2 | 0.00 | 0.00 | 0.00 | 43 | 1005.4 |
| 20260906061206 | 80 | 196 | 5.2 | 10.4 | 0.00 | 0.00 | 0.00 | 43 | 1005.3 |
| 20260906060206 | 80 | 183 | 4.3 | 10.4 | 0.00 | 0.00 | 0.00 | 43 | 1005.2 |
| 20260906055706 | 79 | 158 | 4.3 | 15.6 | 0.00 | 0.00 | 0.00 | 43 | 1005.1 |
| 20260906055205 | 79 | 153 | 6.1 | 11.3 | 0.00 | 0.00 | 0.00 | 44 | 1005.1 |
| 20260906054705 | 79 | 165 | 5.2 | 11.3 | 0.00 | 0.00 | 0.00 | 45 | 1005.2 |
| 20260906053705 | 79 | 176 | 3.5 | 8.7 | 0.00 | 0.00 | 0.00 | 46 | 1005.0 |
| 20260906053205 | 79 | 148 | 2.6 | 8.7 | 0.00 | 0.00 | 0.00 | 46 | 1004.9 |
| 20260906051206 | 79 | 153 | 4.3 | 10.4 | 0.00 | 0.00 | 0.00 | 48 | 1004.7 |
| 20260906050706 | 78 | 138 | 4.3 | 11.3 | 0.00 | 0.00 | 0.00 | 48 | 1004.8 |
| 20260906050206 | 78 | 133 | 3.5 | 6.1 | 0.00 | 0.00 | 0.00 | 49 | 1004.9 |
| 20260906045705 | 78 | 158 | 2.6 | 10.4 | 0.00 | 0.00 | 0.00 | 50 | 1005.2 |
| 20260906045205 | 78 | 134 | 2.6 | 10.4 | 0.00 | 0.00 | 0.00 | 50 | 1005.3 |
| 20260906044705 | 78 | 143 | 5.2 | 10.4 | 0.00 | 0.00 | 0.00 | 51 | 1005.4 |
| 20260906043706 | 78 | 117 | 3.5 | 10.4 | 0.00 | 0.00 | 0.00 | 52 | 1005.6 |
| 20260906042705 | 78 | 132 | 4.3 | 10.4 | 0.00 | 0.00 | 0.00 | 51 | 1005.5 |
| 20260906042206 | 78 | 195 | 4.3 | 12.2 | 0.00 | 0.00 | 0.00 | 53 | 1005.5 |
| 20260906041705 | 78 | 173 | 2.6 | 11.3 | 0.00 | 0.00 | 0.00 | 54 | 1005.5 |
| 20260906041205 | 78 | 158 | 3.5 | 10.4 | 0.00 | 0.00 | 0.00 | 54 | 1005.5 |
| 20260906040705 | 78 | 158 | 4.3 | 10.4 | 0.00 | 0.00 | 0.00 | 55 | 1005.4 |
| 20260906040205 | 78 | 146 | 5.2 | 10.4 | 0.00 | 0.00 | 0.00 | 56 | 1005.5 |
| 20260906035205 | 77 | 162 | 5.2 | 12.2 | 0.00 | 0.00 | 0.00 | 58 | 1005.5 |
| 20260906034706 | 77 | 156 | 4.3 | 13.0 | 0.00 | 0.00 | 0.00 | 59 | 1005.7 |
| 20260906034205 | 77 | 155 | 4.3 | 13.9 | 0.00 | 0.00 | 0.00 | 60 | 1005.9 |
| 20260906033705 | 77 | 150 | 4.3 | 10.4 | 0.00 | 0.00 | 0.00 | 60 | 1005.7 |
| 20260906033205 | 77 | 161 | 1.7 | 10.4 | 0.00 | 0.00 | 0.00 | 60 | 1005.6 |
| 20260906032205 | 78 | 116 | 2.6 | 8.7 | 0.00 | 0.00 | 0.00 | 58 | 1005.5 |
| 20260906031705 | 78 | 157 | 4.3 | 11.3 | 0.00 | 0.00 | 0.00 | 55 | 1005.5 |
| 20260906031205 | 79 | 163 | 2.6 | 8.7 | 0.00 | 0.00 | 0.00 | 52 | 1005.7 |
| 20260906030705 | 80 | 174 | 4.3 | 7.0 | 0.00 | 0.00 | 0.00 | 50 | 1005.7 |
| 20260906030205 | 80 | 187 | 5.2 | 15.6 | 0.00 | 0.00 | 0.00 | 49 | 1006.0 |
| 20260906025706 | 80 | 145 | 4.3 | 10.4 | 0.00 | 0.00 | 0.00 | 49 | 1006.1 |
| 20260906025205 | 81 | 132 | 4.3 | 13.0 | 0.00 | 0.00 | 0.00 | 50 | 1006.3 |
| 20260906024705 | 81 | 123 | 1.7 | 10.4 | 0.00 | 0.00 | 0.00 | 52 | 1006.2 |
| 20260906024205 | 81 | 122 | 2.6 | 5.2 | 0.00 | 0.00 | 0.00 | 58 | 1006.2 |
| 20260906023705 | 81 | 173 | 2.6 | 7.8 | 0.00 | 0.00 | 0.00 | 60 | 1006.2 |
| 20260906023205 | 81 | 166 | 1.7 | 4.3 | 0.00 | 0.00 | 0.00 | 60 | 1006.1 |
| 20260906022705 | 81 | 140 | 1.7 | 5.2 | 0.00 | 0.00 | 0.00 | 60 | 1005.8 |
| 20260906021705 | 81 | 138 | 1.7 | 2.6 | 0.00 | 0.00 | 0.00 | 59 | 1005.4 |
| 20260906020705 | 82 | 123 | 0.9 | 1.7 | 0.00 | 0.00 | 0.00 | 58 | 1004.8 |
| 20260906015705 | 82 | 123 | 0.0 | 1.7 | 0.00 | 0.00 | 0.00 | 56 | 1004.4 |
| 20260906015205 | 83 | 123 | 0.9 | 1.7 | 0.00 | 0.00 | 0.00 | 56 | 1004.2 |
| 20260906014705 | 83 | 123 | 0.0 | 0.9 | 0.00 | 0.00 | 0.00 | 54 | 1004.3 |
| 20260906014205 | 83 | 123 | 0.0 | 1.7 | 0.00 | 0.00 | 0.00 | 54 | 1004.2 |
| 20260906013705 | 84 | 123 | 0.9 | 1.7 | 0.00 | 0.00 | 0.00 | 53 | 1004.0 |
| 20260906013205 | 84 | 123 | 0.0 | 0.9 | 0.00 | 0.00 | 0.00 | 53 | 1004.1 |
| 20260906012704 | 84 | 123 | 0.0 | 1.7 | 0.00 | 0.00 | 0.00 | 53 | 1004.0 |
| 20260906011705 | 85 | 123 | 0.0 | 0.9 | 0.00 | 0.00 | 0.00 | 51 | 1004.0 |
| 20260906011205 | 85 | 123 | 0.0 | 1.7 | 0.00 | 0.00 | 0.00 | 51 | 1004.0 |
| 20260906010705 | 85 | 123 | 0.9 | 1.7 | 0.00 | 0.00 | 0.00 | 50 | 1003.9 |
| 20260906010205 | 86 | 123 | 0.9 | 2.6 | 0.00 | 0.00 | 0.00 | 50 | 1003.8 |
| 20260906005205 | 86 | 123 | 1.7 | 2.6 | 0.00 | 0.00 | 0.00 | 49 | 1003.8 |
| 20260906004705 | 86 | 123 | 0.9 | 2.6 | 0.00 | 0.00 | 0.00 | 48 | 1004.0 |
| 20260906004205 | 87 | 100 | 1.7 | 6.1 | 0.00 | 0.00 | 0.00 | 48 | 1004.1 |
| 20260906003705 | 87 | 148 | 2.6 | 6.1 | 0.00 | 0.00 | 0.00 | 47 | 1004.1 |
| 20260906003205 | 87 | 117 | 1.7 | 5.2 | 0.00 | 0.00 | 0.00 | 47 | 1004.0 |
| 20260906002705 | 88 | 136 | 1.7 | 6.1 | 0.00 | 0.00 | 0.00 | 46 | 1003.9 |
| 20260906002205 | 88 | 122 | 0.9 | 5.2 | 0.00 | 0.00 | 0.00 | 46 | 1003.9 |
| 20260906001705 | 88 | 181 | 2.6 | 5.2 | 0.00 | 0.00 | 0.00 | 46 | 1003.9 |
| 20260906001205 | 88 | 142 | 2.6 | 6.1 | 0.00 | 0.00 | 0.00 | 46 | 1003.8 |
| 20260906000705 | 88 | 134 | 2.6 | 6.1 | 0.00 | 0.00 | 0.00 | 46 | 1003.7 |
| 20260905235205 | 89 | 46 | 1.7 | 6.1 | 0.00 | 0.00 | 0.00 | 45 | 1003.7 |
| 20260905234205 | 89 | 81 | 1.7 | 6.1 | 0.00 | 0.00 | 0.00 | 45 | 1003.7 |
| 20260905233704 | 89 | 141 | 3.5 | 10.4 | 0.00 | 0.00 | 0.00 | 44 | 1003.6 |
| 20260905233205 | 89 | 140 | 4.3 | 10.4 | 0.00 | 0.00 | 0.00 | 44 | 1003.6 |
| 20260905232705 | 89 | 118 | 5.2 | 7.8 | 0.00 | 0.00 | 0.00 | 44 | 1003.5 |
| 20260905231205 | 88 | 134 | 0.9 | 6.1 | 0.00 | 0.00 | 0.00 | 45 | 1003.3 |
| 20260905230705 | 89 | 65 | 2.6 | 6.1 | 0.00 | 0.00 | 0.00 | 45 | 1003.2 |
| 20260905230205 | 89 | 149 | 4.3 | 8.7 | 0.00 | 0.00 | 0.00 | 44 | 1003.3 |
| 20260905225705 | 89 | 146 | 4.3 | 11.3 | 0.00 | 0.00 | 0.00 | 44 | 1003.3 |
| 20260905225204 | 89 | 142 | 4.3 | 10.4 | 0.00 | 0.00 | 0.00 | 43 | 1003.2 |
| 20260905224705 | 88 | 126 | 4.3 | 13.9 | 0.00 | 0.00 | 0.00 | 43 | 1003.3 |
| 20260905224205 | 88 | 117 | 4.3 | 8.7 | 0.00 | 0.00 | 0.00 | 43 | 1003.4 |
| 20260905223705 | 88 | 124 | 3.5 | 10.4 | 0.00 | 0.00 | 0.00 | 42 | 1003.2 |
| 20260905223205 | 89 | 120 | 6.1 | 15.6 | 0.00 | 0.00 | 0.00 | 40 | 1003.2 |
| 20260905222704 | 90 | 146 | 6.1 | 14.8 | 0.00 | 0.00 | 0.00 | 40 | 1003.3 |
| 20260905221704 | 89 | 107 | 3.5 | 10.4 | 0.00 | 0.00 | 0.00 | 42 | 1003.4 |
| 20260905221205 | 89 | 114 | 5.2 | 10.4 | 0.00 | 0.00 | 0.00 | 41 | 1003.4 |
| 20260905220204 | 86 | 101 | 5.2 | 11.3 | 0.00 | 0.00 | 0.00 | 44 | 1003.6 |
| 20260905215704 | 85 | 71 | 4.3 | 10.4 | 0.00 | 0.00 | 0.00 | 48 | 1003.7 |
| 20260905215205 | 84 | 77 | 7.8 | 13.9 | 0.00 | 0.00 | 0.00 | 48 | 1003.9 |
| 20260905214705 | 84 | 72 | 7.8 | 13.9 | 0.00 | 0.00 | 0.00 | 49 | 1003.9 |
| 20260905214204 | 84 | 82 | 7.0 | 14.8 | 0.00 | 0.00 | 0.00 | 48 | 1003.9 |
| 20260905213704 | 84 | 77 | 7.8 | 12.2 | 0.00 | 0.00 | 0.00 | 47 | 1004.1 |
| 20260905213204 | 85 | 98 | 6.1 | 20.0 | 0.00 | 0.00 | 0.00 | 44 | 1004.0 |
| 20260905212705 | 87 | 88 | 11.3 | 20.0 | 0.00 | 0.00 | 0.00 | 41 | 1004.2 |
| 20260905212205 | 89 | 70 | 12.2 | 26.1 | 0.00 | 0.00 | 0.00 | 38 | 1004.2 |
| 20260905211705 | 95 | 65 | 12.2 | 20.9 | 0.00 | 0.00 | 0.00 | 31 | 1004.1 |
| 20260905211205 | 96 | 16 | 7.8 | 15.6 | 0.00 | 0.00 | 0.00 | 23 | 1003.5 |
| 20260905210705 | 96 | 27 | 7.8 | 17.4 | 0.00 | 0.00 | 0.00 | 23 | 1003.2 |
| 20260905210205 | 96 | 18 | 6.1 | 12.2 | 0.00 | 0.00 | 0.00 | 23 | 1002.8 |